FW3304 Weather Reports


Display with metric or nautical units.
time (UTC)temp
F
wind
direction
speed
MPH
gust
MPH
rain 1hr
in
rain 24hr
in
rain mn
in
humidity
%
barometer
mb
20260902100124 72 147 0.0 0.0 0.00 0.00 0.00 96 1016.2
20260902100020 72 0.0 0.0 0.00 0.00 0.00 96 1018.9
20260902094614 73 147 0.0 0.0 0.00 0.00 0.00 96 1016.1
20260902093111 73 147 0.0 0.0 0.00 0.00 0.00 96 1016.0
20260902093016 73 0.0 0.0 0.00 0.00 0.00 96 1018.7
20260902091555 74 147 0.0 0.0 0.00 0.00 0.00 96 1016.1
20260902090053 74 147 0.0 0.0 0.00 0.00 0.00 96 1016.0
20260902090016 74 0.0 0.0 0.00 0.00 0.00 96 1018.6
20260902084555 74 147 0.0 0.0 0.00 0.00 0.00 96 1015.8
20260902083052 74 147 0.0 0.0 0.00 0.00 0.00 97 1015.9
20260902083015 74 0.0 0.0 0.00 0.00 0.00 97 1018.7
20260902081552 74 147 0.0 0.0 0.00 0.00 0.00 98 1015.9
20260902080053 73 146 0.0 0.0 0.00 0.00 0.00 97 1015.9
20260902080015 73 0.0 0.0 0.00 0.00 0.00 97 1018.5
20260902074550 73 146 0.0 0.0 0.00 0.00 0.00 97 1016.0
20260902073052 74 146 0.0 0.0 0.00 0.00 0.00 97 1015.9
20260902073016 74 0.0 0.0 0.00 0.00 0.00 97 1018.5
20260902071548 74 146 0.0 0.0 0.00 0.00 0.00 97 1015.8
20260902070046 74 146 0.0 0.0 0.00 0.00 0.00 97 1015.7
20260902070015 74 0.0 0.0 0.00 0.00 0.00 97 1018.5
20260902064546 74 146 0.0 0.0 0.00 0.00 0.00 97 1015.7
20260902063045 74 146 0.0 0.0 0.00 0.00 0.00 96 1015.8
20260902063020 74 0.0 0.0 0.00 0.00 0.00 96 1018.5
20260902061556 74 146 0.0 0.0 0.00 0.00 0.00 96 1015.8
20260902060054 74 146 0.0 0.0 0.00 0.00 0.00 96 1015.9
20260902060015 74 0.0 0.0 0.00 0.00 0.00 96 1018.7
20260902054543 74 146 0.0 0.0 0.00 0.00 0.00 96 1016.0
20260902053039 74 146 0.0 0.0 0.00 0.00 0.00 96 1015.8
20260902053015 74 0.0 0.0 0.00 0.00 0.00 96 1018.6
20260902051537 75 146 0.0 0.0 0.00 0.00 0.00 96 1015.8
20260902050040 75 146 0.0 0.0 0.00 0.00 0.00 95 1015.7
20260902050035 75 0.0 0.0 0.00 0.00 0.00 95 1018.4
20260902044534 75 146 0.0 0.0 0.00 0.00 0.00 95 1015.6
20260902043034 75 146 0.0 0.0 0.00 0.00 0.00 95 1015.7
20260902043015 75 0.0 0.0 0.00 0.00 0.00 95 1018.4
20260902041535 75 146 0.0 0.0 0.00 0.00 0.00 95 1015.8
20260902040032 76 146 0.0 0.0 0.00 0.00 0.00 94 1015.8
20260902040015 76 0.0 0.0 0.00 0.00 0.00 94 1018.6
20260902034532 76 146 0.0 0.0 0.00 0.00 0.00 94 1015.9
20260902033036 76 146 0.0 0.0 0.00 0.00 0.00 94 1016.0
20260902033015 76 0.0 0.0 0.00 0.00 0.00 94 1018.6
20260902031531 76 146 0.0 0.0 0.00 0.00 0.00 93 1016.0
20260902030059 77 0.0 0.0 0.00 0.00 0.00 92 1018.6
20260902030032 77 146 0.0 0.0 0.00 0.00 0.00 92 1016.0
20260902024537 77 146 0.0 0.0 0.00 0.00 0.00 92 1016.1
20260902023029 78 146 0.0 0.0 0.00 0.00 0.00 92 1016.0
20260902023015 78 0.0 0.0 0.00 0.00 0.00 92 1018.4
20260902021542 78 146 0.0 0.0 0.00 0.00 0.00 91 1016.0
20260902020031 79 146 0.0 0.0 0.00 0.00 0.00 90 1016.0
20260902020015 79 0.0 0.0 0.00 0.00 0.00 90 1018.3
20260902014534 80 146 0.0 0.0 0.00 0.00 0.00 90 1015.7
20260902013026 80 146 0.0 0.0 0.00 0.00 0.00 88 1015.7
20260902013015 80 0.0 0.0 0.00 0.00 0.00 88 1018.2
20260902011525 81 146 0.0 0.0 0.00 0.00 0.00 86 1015.5
20260902010027 82 146 0.0 0.0 0.00 0.00 0.00 85 1015.4
20260902010015 83 0.0 0.0 0.00 0.00 0.00 85 1018.0
20260902004524 84 146 0.0 0.0 0.00 0.00 0.00 83 1015.3
20260902003024 85 146 0.0 0.0 0.00 0.00 0.00 81 1015.3
20260902003015 85 0.0 0.0 0.00 0.00 0.00 81 1017.9
20260902001522 87 146 0.0 0.0 0.00 0.00 0.00 77 1015.3
20260902000037 89 0.0 5.0 0.00 0.00 0.00 74 1018.2
20260902000021 89 146 0.0 0.0 0.00 0.00 0.00 74 1015.5
20260901234521 90 146 0.0 0.0 0.00 0.00 0.00 72 1015.5
20260901233121 91 147 1.0 6.0 0.00 0.00 0.00 70 1018.2
20260901233041 91 146 0.0 3.0 0.00 0.00 0.00 70 1015.6
20260901231522 91 146 2.0 4.0 0.00 0.00 0.00 67 1015.6
20260901230031 92 146 1.0 4.0 0.00 0.00 0.00 66 1015.6
20260901230017 92 147 2.0 7.0 0.00 0.00 0.00 66 1018.2
20260901224519 92 143 2.0 5.0 0.00 0.00 0.00 65 1015.6
20260901223019 92 148 2.0 6.0 0.00 0.00 0.00 63 1015.6
20260901223016 92 149 3.0 9.0 0.00 0.00 0.00 63 1018.3
20260901221518 92 153 3.0 6.0 0.00 0.00 0.00 65 1015.5
20260901220017 92 153 3.0 7.0 0.00 0.00 0.00 63 1015.4
20260901214532 93 150 3.0 6.0 0.00 0.00 0.00 64 1015.4
20260901213017 93 126 3.0 10.0 0.00 0.00 0.00 65 1018.2
20260901211516 92 129 3.0 6.0 0.00 0.00 0.00 67 1015.5
20260901210117 92 137 3.0 8.0 0.00 0.00 0.00 67 1015.7
20260901210017 92 82 5.0 10.0 0.00 0.00 0.00 69 1018.4
20260901204514 92 75 6.0 9.0 0.00 0.00 0.00 67 1015.7
20260901203016 93 120 4.0 10.0 0.00 0.00 0.00 65 1018.5
20260901203011 93 93 4.0 8.0 0.00 0.00 0.00 65 1015.8
20260901201509 93 127 2.0 9.0 0.00 0.00 0.00 64 1015.8
20260901200021 94 184 2.0 7.0 0.00 0.00 0.00 58 1018.8
20260901200008 94 171 1.0 5.0 0.00 0.00 0.00 58 1016.0
20260901194504 94 192 3.0 6.0 0.00 0.00 0.00 59 1016.1
20260901193037 93 196 2.0 7.0 0.00 0.00 0.00 61 1019.0
20260901193002 93 200 3.0 5.0 0.00 0.00 0.00 61 1016.2
20260901191502 93 200 3.0 5.0 0.00 0.00 0.00 60 1016.4
20260901190016 93 134 2.0 6.0 0.00 0.00 0.00 64 1019.3
20260901184602 92 134 1.0 4.0 0.00 0.00 0.00 64 1016.8
20260901183103 92 347 0.0 3.0 0.00 0.00 0.00 64 1016.9
20260901183037 92 340 1.0 6.0 0.00 0.00 0.00 63 1019.6
20260901181558 93 347 2.0 4.0 0.00 0.00 0.00 61 1017.0
20260901180057 93 342 2.0 6.0 0.00 0.00 0.00 63 1017.3
20260901180016 93 8 2.0 8.0 0.00 0.00 0.00 62 1020.1
20260901174559 93 336 4.0 6.0 0.00 0.00 0.00 64 1017.3
20260901173053 92 105 2.0 6.0 0.00 0.00 0.00 67 1017.5
20260901173016 92 187 3.0 9.0 0.00 0.00 0.00 66 1020.2
20260901171550 92 196 4.0 6.0 0.00 0.00 0.00 65 1017.6
20260901170045 91 217 1.0 6.0 0.00 0.00 0.00 67 1017.9
20260901170016 91 239 3.0 9.0 0.00 0.00 0.00 67 1020.7
20260901164551 90 333 4.0 8.0 0.00 0.00 0.00 67 1018.1
20260901163039 90 226 2.0 7.0 0.00 0.00 0.00 69 1018.2
20260901163021 90 236 3.0 9.0 0.00 0.00 0.00 69 1020.9
20260901161546 90 245 3.0 8.0 0.00 0.00 0.00 71 1018.2
20260901160036 89 229 3.0 8.0 0.00 0.00 0.00 71 1021.0
20260901160031 89 202 3.0 6.0 0.00 0.00 0.00 70 1018.3
20260901154530 88 290 3.0 7.0 0.00 0.00 0.00 72 1018.3
20260901153040 88 259 3.0 7.0 0.00 0.00 0.00 73 1018.3
20260901153016 88 218 3.0 9.0 0.00 0.00 0.00 74 1021.0
20260901151524 87 206 2.0 7.0 0.00 0.00 0.00 77 1018.3
20260901150020 86 234 3.0 7.0 0.00 0.00 0.00 77 1018.3
20260901150016 86 209 4.0 9.0 0.00 0.00 0.00 77 1021.0
20260901144523 85 241 2.0 7.0 0.00 0.00 0.00 78 1018.3
20260901143036 84 227 3.0 8.0 0.00 0.00 0.00 79 1021.0
20260901143014 84 214 5.0 8.0 0.00 0.00 0.00 79 1018.3
20260901141509 83 221 3.0 8.0 0.00 0.00 0.00 81 1018.5
20260901140016 82 216 2.0 7.0 0.00 0.00 0.00 85 1021.2
20260901140003 82 208 4.0 7.0 0.00 0.00 0.00 85 1018.5
20260901134600 80 218 2.0 5.0 0.00 0.00 0.00 89 1018.5
20260901133057 79 217 1.0 5.0 0.00 0.00 0.00 90 1018.5
20260901133016 79 211 1.0 5.0 0.00 0.00 0.00 90 1021.1
20260901131553 78 209 2.0 4.0 0.00 0.00 0.00 92 1018.5
20260901130049 77 286 0.0 0.0 0.00 0.00 0.00 95 1018.4
20260901130021 77 0.0 0.0 0.00 0.00 0.00 96 1020.9
20260901124546 76 338 0.0 0.0 0.00 0.00 0.00 98 1018.3
20260901123056 74 0.0 0.0 0.00 0.00 0.00 99 1020.8
20260901123043 74 150 0.0 0.0 0.00 0.00 0.00 99 1018.2
20260901121540 73 150 0.0 0.0 0.00 0.00 0.00 99 1018.1
20260901120037 72 150 0.0 0.0 0.00 0.00 0.00 99 1017.9
20260901120015 72 0.0 0.0 0.00 0.00 0.00 99 1020.5
20260901114535 72 150 0.0 0.0 0.00 0.00 0.00 98 1017.7
20260901113034 72 150 0.0 0.0 0.00 0.00 0.00 98 1017.6
20260901113015 72 0.0 0.0 0.00 0.00 0.00 98 1020.1
20260901111531 72 150 0.0 0.0 0.00 0.00 0.00 98 1017.5
20260901110033 72 150 0.0 0.0 0.00 0.00 0.00 98 1017.3
20260901110015 72 0.0 0.0 0.00 0.00 0.00 98 1019.9
20260901104535 72 150 0.0 0.0 0.00 0.00 0.00 98 1017.2
20260901103024 72 150 0.0 0.0 0.00 0.00 0.00 98 1017.1
20260901103016 72 0.0 0.0 0.00 0.00 0.00 98 1019.6
20260901101521 73 150 0.0 0.0 0.00 0.00 0.00 98 1016.9